Location: Ansan
(43.6898°N, 0.7731°E)
Time: 19:36:13
(UTC+00:00)

Cosmos 2360 Rocket - Pass Details

Date: 15 May 2026
Orbit: 831 x 845 km, 71.0° (Epoch: 7 June)

Event Time Altitude Azimuth Distance (km) Brightness Sun altitude
Rises 21:45:47 0° 333° (NNW) 3,414 6.9 -20.8°
Reaches altitude 10° 21:48:15 10° 333° (NNW) 2,475 5.8 -21.0°
Maximum altitude 21:53:56 80° 248° (WSW) 862 2.2 -21.6°
Enters shadow 21:55:45 45° 168° (SSE) 1,136 2.4 -21.7°
